GALAXY 35 (G-35)

Last updated on Fri Dec 19 2025 00:02:53 GMT+0000 (Coordinated Universal Time)

1 54741U 22170A 25352.60656161 .00000000 00000+0 00000+0 0 9999 2 54741 0.0202 29.8843 0002143 242.2502 300.5856 1.00270909 11083
UTC large
Height (km)
Speed (km/s)
/
Latitude / Longitude
Inclination (degrees)
Orbital Period (minutes)
Azimuth
Elevation
Range (km)
Doppler Factor

Next 0 passes for location: London (51.5072 / 0.1276)

Sorry there are no passes over London.